User: anonymous
Location: Hancock Field Station
(44.9202°N, 120.4259°W)
Time: 14:17:38
(UTC-07:00)
Language:

Nadezhda 4 Rocket - Orbit

View from above orbital plane
View from above orbital plane
View from above satellite
View from above satellite

Ground track
Ground track

The orbit data is extracted from the following two-line orbital elements,

1 23180U 94041B   14244.75451463  .00000039  00000-0  23281-4 0  5057
2 23180 082.9489 329.5882 0028923 199.9817 316.5579 13.77845017 12519
Epoch (UTC): 01 September 2014 18:06:30
Eccentricity: 0.0028923
inclination: 82.9489°
perigee height: 950 km
apogee height: 993 km
right ascension of ascending node: 329.5882°
argument of perigee: 199.9817°
revolutions per day: 13.77845017
mean anomaly at epoch: 316.5579°
orbit number at epoch: 1251

The dashed part of the orbit path shows where the satellite is in the earth's shadow,  

DLR